Stations météo

réclame
Mon MeteoGroup
Camborne, Grande-Bretagne (3808): Température de l'air & dewpoint: 19.09.2018 12:00:00 - 25.09.2018 12:00:00 (BST)Camborne, Grande-Bretagne (3808): Température de l'air -20cm & Température de l'air -100cm: 19.09.2018 12:00:00 - 25.09.2018 12:00:00 (BST)Camborne, Grande-Bretagne (3808): Vitesse du vent & gusts: 19.09.2018 12:00:00 - 25.09.2018 12:00:00 (BST)Camborne, Grande-Bretagne (3808): Direction du vent: 19.09.2018 12:00:00 - 25.09.2018 12:00:00 (BST)Camborne, Grande-Bretagne (3808): reduced air pressure: 19.09.2018 12:00:00 - 25.09.2018 12:00:00 (BST)Camborne, Grande-Bretagne (3808): visibility: 19.09.2018 12:00:00 - 25.09.2018 12:00:00 (BST)Camborne, Grande-Bretagne (3808): Ensoleillement: 19.09.2018 12:00:00 - 25.09.2018 12:00:00 (BST)Camborne, Grande-Bretagne (3808): Quantités de précipitations: 19.09.2018 12:00:00 - 25.09.2018 12:00:00 (BST)
Date & Time tt [°C] td [°C] tt -20cm [°C] tt -100cm [°C] ff [km/h] ff [knt] fx [km/h] fx [knt] dd ppp [hPa] vv [km] sd [min] rr [mm]
25.09.2018 12:00:00 14,7 8,4 - - 15 8 - - S 1037,1 25 54 -
25.09.2018 11:00:00 14,0 8,9 - - 16 9 - - SSE 1037,0 29 60 0,0
25.09.2018 10:00:00 13,2 9,4 16,7 16,4 16 9 - - SE 1037,0 30 60 0,0
25.09.2018 09:00:00 11,0 8,3 - - 11 6 - - ESE 1037,5 25 48 0,0
25.09.2018 08:00:00 9,4 7,9 - - 9 5 - - ESE 1037,5 25 6 0,0
25.09.2018 07:00:00 7,7 6,4 - - 9 5 - - E 1037,5 25 0 0,0
25.09.2018 06:00:00 6,9 5,6 - - 9 5 - - SE 1037,2 30 0 0,0
25.09.2018 05:00:00 7,9 6,1 - - 11 6 - - SE 1037,3 35 0 0,0
25.09.2018 04:00:00 8,3 6,5 - - 11 6 - - SE 1037,7 35 0 0,0
25.09.2018 03:00:00 8,1 6,4 - - 9 5 - - SE 1038,3 35 0 0,0
25.09.2018 02:00:00 9,1 6,5 - - 11 6 - - SE 1038,4 30 0 0,0
25.09.2018 01:00:00 8,2 4,3 - - 8 4 - - E 1038,6 40 - 0,0
25.09.2018 00:00:00 8,8 3,7 - - 8 4 - - E 1039,0 40 0 0,0
24.09.2018 23:00:00 8,2 5,4 - - 9 5 - - E 1039,0 40 0 0,0
24.09.2018 22:00:00 8,6 5,6 - - 9 5 - - ENE 1039,0 40 0 0,0
24.09.2018 21:00:00 8,9 5,8 - - 8 4 - - E 1038,8 40 0 0,0
24.09.2018 20:00:00 10,0 5,3 - - 9 5 - - NNE 1038,9 45 12 0,0
24.09.2018 19:00:00 11,4 5,5 - - 9 5 - - NNE 1038,6 30 60 0,0
24.09.2018 18:00:00 13,0 5,4 - - 13 7 - - N 1038,8 30 60 0,0
24.09.2018 17:00:00 13,8 6,6 - - 15 8 - - NNE 1038,9 30 60 0,0
24.09.2018 16:00:00 14,0 6,3 - - 15 8 - - N 1039,3 28 60 0,0
24.09.2018 15:00:00 14,2 7,0 - - 15 8 - - N 1039,4 25 60 0,0
24.09.2018 14:00:00 14,1 7,4 - - 16 9 - - N 1039,6 25 54 0,0
24.09.2018 13:00:00 13,4 6,8 - - 13 7 - - N 1039,8 22 36 0,0
24.09.2018 12:00:00 12,9 7,5 - - 11 6 - - NNE 1039,7 25 18 0,0
24.09.2018 11:00:00 13,4 6,6 - - 9 5 - - ENE 1040,0 28 54 0,0
24.09.2018 10:00:00 13,1 6,7 16,9 16,7 9 5 - - ESE 1039,4 30 60 0,0
24.09.2018 09:00:00 11,9 6,8 - - 5 3 - - ESE 1038,9 40 60 0,0
24.09.2018 08:00:00 9,6 6,3 - - 5 3 - - E 1038,4 40 12 0,0
24.09.2018 07:00:00 9,2 5,9 - - 5 3 - - E 1037,8 40 0 0,0
24.09.2018 06:00:00 8,3 6,4 - - 5 3 - - E 1037,5 30 0 0,0
24.09.2018 05:00:00 8,0 5,6 - - 5 3 - - ESE 1037,2 30 0 0,0
24.09.2018 04:00:00 10,4 6,0 - - 8 4 - - NE 1036,8 30 0 0,0
24.09.2018 03:00:00 9,3 5,2 - - 5 3 - - ENE 1036,9 30 0 0,0
24.09.2018 02:00:00 10,4 4,7 - - 9 5 - - NE 1036,7 40 0 0,0
24.09.2018 01:00:00 11,4 4,2 - - 13 7 - - NNE 1035,9 40 - 0,0
24.09.2018 00:00:00 12,2 5,9 - - 18 10 - - N 1034,9 40 0 0,0
23.09.2018 23:00:00 12,1 5,2 - - 22 12 - - N 1034,1 30 0 0,0
23.09.2018 22:00:00 12,0 4,4 - - 18 10 - - N 1033,8 40 0 0,0
23.09.2018 21:00:00 12,1 3,6 - - 24 13 - - N 1032,5 40 0 0,0
23.09.2018 20:00:00 12,0 2,8 - - 24 13 - - N 1031,5 40 0 0,0
23.09.2018 19:00:00 12,0 4,6 - - 28 15 50 27 N 1030,2 40 30 0,0
23.09.2018 18:00:00 12,3 4,0 - - 29 16 50 27 N 1029,2 35 48 0,0
23.09.2018 17:00:00 12,6 3,5 - - 34 18 50 27 N 1028,4 40 54 0,0
23.09.2018 16:00:00 12,9 4,9 - - 31 17 52 28 N 1027,5 30 54 0,0
23.09.2018 15:00:00 13,3 4,6 - - 28 15 46 25 N 1026,9 40 54 0,0
23.09.2018 14:00:00 13,2 7,5 - - 29 16 50 27 N 1025,7 25 42 0,0
23.09.2018 13:00:00 13,5 8,9 - - 29 16 54 29 N 1023,7 30 36 0,0
23.09.2018 12:00:00 12,5 7,7 - - 34 18 57 31 N 1022,4 30 30 0,0
23.09.2018 11:00:00 11,6 8,1 - - 37 20 55 30 NNE 1020,7 23 6 0,0
23.09.2018 10:00:00 12,1 8,8 16,7 16,7 39 21 57 31 N 1019,9 16 0 0,0
23.09.2018 09:00:00 11,8 10,3 - - 31 17 54 29 N 1017,0 25 0 0,2
23.09.2018 08:00:00 12,1 11,6 - - 28 15 48 26 N 1015,2 6 0 1,8
23.09.2018 07:00:00 12,2 11,9 - - 26 14 - - N 1014,8 4,0 0 0,6
23.09.2018 06:00:00 12,4 11,4 - - 21 11 - - NNE 1013,3 12 0 0,0
23.09.2018 05:00:00 12,4 11,4 - - 21 11 - - NNE 1013,1 20 0 0,0
23.09.2018 04:00:00 12,4 11,3 - - 16 9 - - N 1013,2 20 0 0,0
23.09.2018 03:00:00 12,2 11,4 - - 15 8 - - N 1013,3 15 0 0,0
23.09.2018 02:00:00 12,3 11,8 - - 9 5 - - N 1013,3 12 0 0,0
23.09.2018 01:00:00 12,3 12,0 - - 11 6 - - N 1013,0 10 - 0,0
23.09.2018 00:00:00 12,7 12,3 - - 15 8 - - NNW 1012,7 12 0 0,0
22.09.2018 23:00:00 13,0 12,8 - - 15 8 - - NW 1012,2 10 0 0,0
22.09.2018 22:00:00 13,2 13,1 - - 9 5 - - W 1011,5 10 0 0,0
22.09.2018 21:00:00 14,0 13,9 - - 16 9 - - WNW 1011,0 6 0 0,0
22.09.2018 20:00:00 15,3 15,3 - - 16 9 - - W 1009,9 4,0 0 0,0
22.09.2018 19:00:00 16,9 16,8 - - 24 13 - - WSW 1009,1 1,2 0 0,0
22.09.2018 18:00:00 17,3 17,0 - - 29 16 48 26 WSW 1008,7 1,8 0 0,0
22.09.2018 17:00:00 17,4 17,2 - - 28 15 46 25 WSW 1008,5 3,5 0 0,0
22.09.2018 16:00:00 17,3 17,2 - - 28 15 - - WSW 1008,8 1,5 0 0,2
22.09.2018 15:00:00 14,5 14,2 - - 16 9 54 29 SE 1008,8 3,0 0 0,6
22.09.2018 14:00:00 13,5 12,7 - - 37 20 59 32 SE 1008,9 3,5 0 1,4
22.09.2018 13:00:00 12,8 12,0 - - 24 13 46 25 SE 1010,8 2,5 0 1,4
22.09.2018 12:00:00 12,1 11,3 - - 29 16 46 25 SE 1012,3 3,0 0 2,2
22.09.2018 11:00:00 11,4 10,7 - - 24 13 - - SE 1014,7 4,0 0 1,4
22.09.2018 10:00:00 10,8 10,2 17,4 17,0 16 9 - - SE 1016,2 5 0 1,4
22.09.2018 09:00:00 10,7 10,3 - - 9 5 - - SE 1017,8 4,0 0 1,6
22.09.2018 08:00:00 11,2 9,6 - - 9 5 - - SSE 1018,3 4,0 0 0,0
22.09.2018 07:00:00 11,1 10,4 - - 0 0 - - N 1019,2 17 0 0,8
22.09.2018 06:00:00 11,2 10,2 - - 2 1 - - SSW 1019,2 13 0 1,2
22.09.2018 05:00:00 11,7 10,1 - - 9 5 - - SSE 1019,6 16 0 0,0
22.09.2018 04:00:00 11,3 9,7 - - 2 1 - - SSE 1020,2 15 0 0,0
22.09.2018 03:00:00 11,7 9,3 - - 8 4 - - SSW 1021,1 11 0 0,0
22.09.2018 02:00:00 11,8 8,7 - - 8 4 - - SSW 1020,9 13 0 0,0
22.09.2018 01:00:00 11,6 8,7 - - 9 5 - - SSW 1021,0 17 - 0,0
22.09.2018 00:00:00 11,6 8,7 - - 9 5 - - SW 1021,1 18 0 0,0
21.09.2018 23:00:00 12,5 8,5 - - 11 6 - - WSW 1021,1 17 0 0,0
21.09.2018 22:00:00 13,1 7,9 - - 18 10 - - W 1020,6 20 0 0,0
21.09.2018 21:00:00 13,1 7,4 - - 18 10 - - W 1020,2 20 0 0,0
21.09.2018 20:00:00 13,1 7,2 - - 22 12 - - W 1019,8 16 0 0,0
21.09.2018 19:00:00 13,2 6,6 - - 22 12 - - WSW 1019,3 18 0 0,0
21.09.2018 18:00:00 13,5 7,0 - - 26 14 - - W 1018,7 18 0 0,0
21.09.2018 17:00:00 13,9 6,9 - - 29 16 - - WNW 1018,4 20 24 0,0
21.09.2018 16:00:00 14,1 7,0 - - 28 15 - - W 1017,9 20 36 0,0
21.09.2018 15:00:00 13,9 7,4 - - 26 14 46 25 W 1017,6 25 24 0,0
21.09.2018 14:00:00 14,2 7,3 - - 29 16 52 28 W 1017,0 30 54 0,0
21.09.2018 13:00:00 13,2 9,0 - - 26 14 52 28 W 1016,0 30 42 0,2
21.09.2018 12:00:00 13,6 7,4 - - 34 18 55 30 W 1015,4 30 42 0,0
21.09.2018 11:00:00 13,6 7,1 - - 31 17 59 32 W 1014,4 25 54 0,0
21.09.2018 10:00:00 11,1 7,3 17,7 17,0 31 17 74 40 WNW 1014,0 30 54 0,8
21.09.2018 09:00:00 12,3 7,6 - - 31 17 50 27 W 1012,8 35 42 0,0
21.09.2018 08:00:00 11,0 6,9 - - 28 15 67 36 W 1011,8 35 0 0,4
21.09.2018 07:00:00 10,3 7,4 - - 26 14 - - WNW 1011,0 17 0 0,2
21.09.2018 06:00:00 10,3 7,5 - - 18 10 48 26 WNW 1010,0 18 0 0,4
21.09.2018 05:00:00 11,1 6,4 - - 22 12 - - WNW 1009,3 28 0 0,0
21.09.2018 04:00:00 11,0 6,3 - - 29 16 48 26 NW 1008,4 26 0 0,0
21.09.2018 03:00:00 11,0 8,1 - - 34 18 57 31 NW 1007,4 20 0 0,0
21.09.2018 02:00:00 11,6 9,1 - - 28 15 54 29 NW 1005,6 28 0 0,6
21.09.2018 01:00:00 13,3 10,7 - - 22 12 - - WSW 1002,8 12 - 0,0
21.09.2018 00:00:00 13,2 10,5 - - 26 14 48 26 W 1002,8 22 0 0,0
20.09.2018 23:00:00 13,9 11,6 - - 31 17 59 32 W 1002,0 13 0 0,0
20.09.2018 22:00:00 15,2 13,7 - - 41 22 81 44 WSW 1000,6 15 0 1,4
20.09.2018 21:00:00 16,8 16,4 - - 50 27 78 42 SSW 999,0 3,8 0 4,2
20.09.2018 20:00:00 16,8 16,6 - - 44 24 80 43 SSW 999,9 4,3 0 3,8
20.09.2018 19:00:00 16,7 16,6 - - 41 22 67 36 SSW 1001,1 2,5 0 6,0
20.09.2018 18:00:00 17,0 16,5 - - 42 23 63 34 SSW 1003,0 4,5 0 0,4
20.09.2018 17:00:00 17,1 16,4 - - 35 19 61 33 SSW 1004,2 6 0 0,0
20.09.2018 16:00:00 17,4 16,4 - - 37 20 59 32 SSW 1005,4 6 0 0,0
20.09.2018 15:00:00 17,2 16,3 - - 37 20 59 32 SSW 1006,4 6 0 0,0
20.09.2018 14:00:00 17,3 16,4 - - 39 21 67 36 SSW 1007,1 6 0 0,0
20.09.2018 13:00:00 17,0 16,4 - - 39 21 63 34 SSW 1007,5 6 0 0,0
20.09.2018 12:00:00 16,7 16,2 - - 37 20 57 31 SSW 1008,4 6 0 0,2
20.09.2018 11:00:00 16,6 16,1 - - 37 20 59 32 SSW 1008,6 3,5 0 0,2
20.09.2018 10:00:00 16,5 16,0 18,0 17,0 29 16 52 28 SSW 1009,5 3,0 0 0,2
20.09.2018 09:00:00 16,4 15,9 - - 31 17 57 31 SSW 1009,8 5 0 0,4
20.09.2018 08:00:00 16,4 15,8 - - 31 17 52 28 SSW 1010,1 5 0 0,0
20.09.2018 07:00:00 16,4 15,8 - - 31 17 46 25 SSW 1010,4 5 0 0,0
20.09.2018 06:00:00 16,2 15,8 - - 29 16 50 27 SSW 1010,7 5 0 0,8
20.09.2018 05:00:00 16,1 15,6 - - 28 15 50 27 SW 1011,2 3,5 0 1,0
20.09.2018 04:00:00 16,4 15,6 - - 31 17 46 25 SW 1011,4 6 0 0,0
20.09.2018 03:00:00 16,4 15,7 - - 34 18 55 30 SW 1011,5 6 0 0,0
20.09.2018 02:00:00 16,4 15,8 - - 35 19 57 31 SW 1011,7 5 0 0,0
20.09.2018 01:00:00 16,3 15,9 - - 35 19 52 28 SW 1012,1 4,0 - 0,2
20.09.2018 00:00:00 14,5 14,3 - - 18 10 - - S 1012,9 3,0 0 0,4
19.09.2018 23:00:00 13,3 13,2 - - 4 2 - - S 1013,9 3,5 0 0,4
19.09.2018 22:00:00 13,1 13,0 - - 8 4 - - WNW 1014,7 1,5 0 0,6
19.09.2018 21:00:00 13,6 13,4 - - 11 6 - - W 1014,8 2,0 0 1,0
19.09.2018 20:00:00 14,5 13,7 - - 11 6 - - SW 1014,3 3,5 0 0,4
19.09.2018 19:00:00 14,9 13,8 - - 13 7 - - SW 1014,2 3,0 0 0,0
19.09.2018 18:00:00 14,9 13,9 - - 15 8 - - SW 1014,3 3,0 0 0,0
19.09.2018 17:00:00 15,2 13,6 - - 24 13 - - W 1014,1 2,0 0 0,0
19.09.2018 16:00:00 17,2 14,4 - - 28 15 - - WSW 1013,3 5 0 0,0
19.09.2018 15:00:00 16,4 15,0 - - 24 13 54 29 SW 1013,0 5 0 0,2
19.09.2018 14:00:00 17,8 15,1 - - 29 16 57 31 SW 1012,5 6 0 0,0
19.09.2018 13:00:00 18,9 15,2 - - 37 20 55 30 SW 1011,9 7 18 0,0
19.09.2018 12:00:00 18,9 15,4 - - 39 21 61 33 SW 1011,4 7 36 0,0

tt = Température de l'air
td = dewpoint
tt -20cm = Température de l'air -20cm
tt -100cm = Température de l'air -100cm
ff = Vitesse du vent
fx = gusts
dd = Direction du vent
ppp = reduced air pressure
vv = visibility
sd = Ensoleillement
rr = Quantités de précipitations

stations d'obs. à proximité